Погода в Элисте

Погода в Элисте : погода сейчас, прогноз погоды и архив. Всё, что Вы хотите узнать о погоде в Элисте!

Поиск расширенной информации на нашем сайте:

Полезная информация: Батарейка philips LR14 Батарейки LR14 BL, LR20 BL.

Другие новости

Новости СМИ2

Главная страница сайта

Новости сайта

02.10.2013

Напоминаем, что на нашем новом сайте вы можете получить высокодетализированные прогнозы погоды по пунктам России, СНГ и мира (включающие важные для авиации метеовеличины, такие как направление и скорость ветра, видимость, явления погоды, количество и форма облачности, нижняя и верхняя граница облачности), а также ознакомиться с разнообразными материалами по авиационной метеорологии и подборкой полезных ссылок на эту тему.

Сайт Метеоцентр.Азия посвящён разработке технологий оптимизации авиаметеорологического обслуживания, включая проектирование и перспективное создание нескольких автоматизированных авиаметеорологических систем:
- система выпуска высокодетальных прогностических карт явлений погоды для нижнего воздушного пространства по России и ближнему зарубежью;
- система верификации прогнозов TAF (выпускаемых синоптиками официальных АМСГ РФ и ближнего зарубежья) и AUTOTAF (выпускаемых сайтом Метеоцентр.Азия) - выявление ошибок, онлайн-сопоставление с фактической погодой METAR, автоматическое внесение коррективов в прогнозы при резком отклонении фактической погоды от прогноза, подсчёт оправдываемости прогнозов по элементам и в целом;
- система обработки, анализа и отображения авиаметеорологической информации для применения провайдерами метеорологической информации.

Рекомендуем: Наши контакты агентство недвижимости гарантия.

Погода в Элисте - сегодня

Время (UTC), дата Ветер
(°,м/с) 
Видим.   Явления Облачность Т
(°С)
Тd
(°С)
f(%) Тe
(°С)
Pmin
(гПа)
dP
(гПа)
Po
(мм)
O2
(г/м3)
Тmin Tmax R s Состояние
почвы
00 22.03.17 320 (СЗ) 6{12}  4000 м  дымка{ливн. осадки}  10/10 300 м 
[Sc diur, vesp]
-0.2 -1.4 92 -4  1011.5  0.1  740  299           
03 22.03.17 330 (СЗ) 7{10}  4000 м  дымка  10/10 200 м 
[St]
-0.6 -1.7 92 -5  1012.1  0.5  741  299  -0.6    равномерный
сухой снег
100% 
06 22.03.17 340 (С) 7-11{12}  2000 м  снег  10/8 200 м средняя 
[Frnb|As op]
-0.8 -1.9 92 -5  1013.1  741  300  -0.8         
09 22.03.17 360 (С) 6{11}  4000 м  слаб. снег  10/8 300 м средняя 
[Frnb|As op]
-1.3 -2.5 92 -5  1014.1  0.9  742  301           
12 22.03.17 340 (С) 4000 м  слаб. переохл. морось (гололёд){снег} [диам. гололёда 0 мм]  10/10 200 м 
[St]
-1.4 -2.8 90 -5  1015.3  1.1  743  301           
15 22.03.17 360 (С) 4000 м  дымка{морось} [диам. гололёда 1 мм]  10/10 200 м 
[St]
-1.7 -3.1 90 -5  1017.1  1.7  744  302    -0.6     
18 22.03.17 010 (С) 4000 м  дымка{морось} [диам. гололёда 1 мм]  10/10 200 м 
[St]
-1.8 -3 91 -5  1018.6  1.4  745  303           
21 22.03.17 010 (С) 4000 м  дымка [диам. гололёда 1 мм]  10/10 300 м 
[St]
-2 -3.4 90 -4  1019.4  0.7  746  303           
00 23.03.17 340 (С) 10 км  [диам. гололёда 1 мм]  10/10 300 м 
[St]
-1.8 -3.2 90 -4  1020  0.6  746  303           
03 23.03.17 360 (С) 4000 м  дымка [диам. гололёда 0 мм]  10/10 200 м 
[St]
-1.5 -2.7 92 -5  1021.1  1.1  747  303  -2.1      равномерный
мокрый или
старый снег
100% 
06 23.03.17 020 (С) 4000 м  дымка{туман}  10/10 200 м 
[St]
-0.8 -1.9 92 -3  1022.6  1.5  748  303           
09 23.03.17 020 (С) 4000 м  дымка  10/10 200 м 
[St]
+0.8 -1 88 -1  1023.5  1.1  749  301           
12 23.03.17 010 (С) 20000 м    10/10 600 м 
[St]
+2.3 -1.1 78 +3  1024.3  0.9  750  300           
15 23.03.17 040 (СВ) 20000 м    10/10 600 м 
[St]
+2.1 -0.8 81 +1  1025.2  0.8  750  300    +2.5       
18 23.03.17 100 (В) 10 км    10/10 600 м 
[St]
+1.1 -0.7 88 +2  1026.6  1.4  752  302           
21 23.03.17 040 (СВ) 4000 м  дымка  10/10 200 м 
[St]
+0 -1.2 92 +1  1027  0.2  752  303           
00 24.03.17 тихо ()   4000 м  дымка  3/0 средняя 
[Ac As]
+0.9 -1.9 82 +1  1026.9  752  302           
03 24.03.17 тихо ()   10 км    10/10 600 м 
[Sc]
+1.1 -2.4 77 +1  1027.4  0.5  752  302  -0.4         
06 24.03.17 210 (ЮЗ) 20000 м    10/0 средняя 
[Ac und]
+3.3 -2.7 65 +4  1027.9  0.7  753  300           
09 24.03.17 180 (Ю) 20000 м    8/8 1000 м 
[Cu med, cong]
+6 -1.2 60 +6  1027.1  -0.5  752  297           
12 24.03.17 200 (Ю) 20000 м    3/3 1000 м 
[Cu med, cong]
+8.2 -0.3 55 +7  1025.4  -1.5  751  294           
15 24.03.17 180 (Ю) 20000 м    3/0 верхняя 
[Ci fib]
+6.9 +0.5 64 +6  1024.6  -0.9  750  295    +8.7       
18 24.03.17 180 (Ю) 10 км    ясно 
+2.7 -0.2 81 +1  1024.1  -0.8  750  299           
21 24.03.17 190 (Ю) 10 км    ясно 
+1.6 -0.4 87 -1  1022.5  -1.7  749  300           
00 25.03.17 200 (Ю) 10 км    ясно 
+0.3 -1.2 90 -3  1020.7  -1.8  747  301           
Время (UTC), дата Ветер
(°,м/с) 
Видим.   Явления Облачность Т
(°С)
Тd
(°С)
f(%) Тe
(°С)
Pmin
(гПа)
dP
(гПа)
Po
(мм)
O2
(г/м3)
Тmin Tmax R s Состояние
почвы

Для получения пояснительной информации подведите курсор к названию столбца.

ПОГОДА в Элисте - архив

Всё, что Вы хотите узнать о погоде в Элисте - удобно и подробно!

Выберите нужную дату (начиная с 1 января 2015* года) и нажмите кнопку "Найти".
Будут отображены архивные сводки погоды по пункту Элиста, начиная с указанной даты.


Отображать данные в формате CSV (для использования в таблицах Excel)


Внимание! Наш архив погоды предназначен исключительно для личного некоммерческого использования в познавательных целях. Если Вам необходимы официальные справки о состоянии погоды (для производственных, юридических, коммерческих и т.п. целей), обращайтесь в органы Росгидромета.

*Примечание: данная дата относится к архиву по метеостанциям СССР (Россия, СНГ, Балтия).
Архив по метеостанциям Зарубежной Европы и Азии (кроме Китая) хранится 10 дней, по другим регионам земного шара (Китай, Африка, Америка, Австралия, Океания) - 1 день.

Элиста - район местоположения метеостанции


Название, широта, долгота, высота метеостанции:
Элиста 46.4°ш. 44.3°д. 155 м над ур. моря [Российская Федерация]

Дополнительная информация

В oтличие oт бoльшинства пoгoдных сайтoв мы публикуем пoдрoбную метеoинфoрмацию в детальнoм прoфессиoнальнoм фoрмате.

Характеристики температуры и влажнoсти вoздуха измеряются на высoте 2 м в тени вдали oт зданий и деревьев.
Скoрoсть ветра измеряется на высoте 10 м (на урoвне рoста челoвека скoрoсть ветра ниже в 1.5-2 раза). Если метеoстанция нахoдится в гoрoде или в лесу, тo скoрoсть ветра занижена на 2-4 м/с пo сравнению с oткрытым местoм. Скoрoсть ветра над акватoриями крупных рек и oзёр, а также на вершинах хoлмoв на 2-5 м/с выше, чем в oбычных услoвиях.
Атмoсфернoе давление в разных тoчках местнoсти мoжет значительнo oтличаться oт давления на метеoстанции, в зависимoсти oт услoвий рельефа (при пoдъёме на 10 м давление пoнижается примернo на 1 мм рт.ст.).